Theta_e
328 330 331 332 333 332 332 332 332 334 333 332 332 333 333 334 334 334 336 336 333 332 332 331 329 330 332 331 331 333 335 337 335 337 337 338 338 337 338 337 336 336 338 339 338 337 335 335 337 336 337 336 334 333 334 334 334 333 332 331 331 331 331 333 333 333 328 325 326 327 328 330 332 333 331 331 334 334 334 334 335 332 333 332 333
328 329 332 333 333 332 332 331 332 330 330 331 332 333 334 335 335 336 336 334 332 331 332 332 331 330 330 330 332 332 332 333 333 333 334 336 336 337 337 336 336 336 336 338 338 337 336 336 336 335 334 334 336 336 336 337 334 333 332 328 330 328 328 332 332 331 324 323 322 323 322 326 327 330 331 331 333 334 334 334 333 334 334 334 334
326 328 330 331 332 331 332 331 331 331 330 331 332 333 334 335 334 334 334 332 332 333 333 333 333 332 331 331 332 332 335 336 336 336 336 335 333 335 336 336 338 338 336 336 335 334 333 333 334 332 333 334 331 330 329 329 330 329 330 328 326 327 327 331 329 330 324 327 325 319 316 318 320 324 327 328 329 331 332 333 334 333 334 335 334
324 325 327 329 330 330 329 329 329 330 330 330 331 331 332 333 333 333 333 333 333 334 334 334 335 336 334 333 333 332 331 333 333 335 334 333 334 337 337 334 333 332 332 333 332 331 331 330 331 331 330 331 327 325 325 325 326 327 327 327 326 323 324 325 327 327 327 325 319 319 317 316 313 317 322 326 326 328 329 332 334 333 333 334 332
324 325 326 328 328 328 328 328 329 329 329 329 330 331 332 332 332 332 333 333 332 334 334 334 335 333 334 332 331 330 331 331 330 330 332 334 333 332 331 331 330 329 330 330 331 329 328 327 327 326 326 327 326 324 323 323 324 324 325 324 323 321 321 321 323 326 327 329 325 320 317 316 317 320 322 322 325 325 326 327 329 332 333 332 330
324 325 326 327 327 328 328 328 328 329 330 330 329 331 332 332 331 331 332 332 332 332 333 333 332 330 328 326 325 325 324 324 326 328 330 331 330 330 330 329 327 326 326 326 326 328 326 326 325 324 323 324 324 322 322 322 322 322 324 323 321 322 320 318 319 323 325 326 327 329 326 319 317 320 320 314 323 323 325 326 326 326 326 327 331
324 326 326 326 326 327 327 328 329 330 331 332 331 330 330 331 331 331 331 331 333 333 332 332 330 329 327 326 326 325 324 326 330 333 332 331 330 328 326 325 325 324 324 323 323 324 323 323 323 322 322 322 325 321 319 319 321 322 324 321 321 321 320 317 317 319 320 322 322 322 323 322 322 319 315 317 313 318 321 321 322 324 323 323 326
324 324 325 326 327 327 327 328 330 331 331 331 330 330 329 330 331 331 332 332 333 333 331 331 329 328 327 327 327 327 327 328 331 332 331 330 328 326 324 322 322 322 321 321 321 321 321 320 320 319 319 321 322 319 318 318 319 321 322 320 320 320 318 316 316 317 316 315 319 317 318 318 318 318 318 315 315 312 312 317 320 319 320 322 322
324 323 325 326 327 328 329 329 330 330 330 330 329 329 330 330 330 331 331 331 331 331 331 331 330 328 328 328 327 328 330 329 330 330 329 328 326 325 322 320 320 319 319 319 319 319 320 319 318 318 318 318 321 318 317 317 317 317 317 317 317 316 317 318 315 314 315 314 314 314 314 313 314 315 315 315 312 310 310 311 312 315 316 318 317
325 325 326 327 328 328 329 329 329 328 329 329 328 329 329 330 330 330 329 329 329 330 331 331 331 330 328 328 327 327 328 327 327 326 326 326 323 320 319 318 318 317 317 317 317 317 317 318 317 317 316 318 320 316 315 315 316 317 316 315 315 314 315 316 315 315 314 314 313 313 311 311 311 311 312 312 311 312 310 310 310 310 309 312 315
324 325 326 326 327 327 328 327 327 327 328 328 328 328 327 326 326 325 326 327 327 328 329 329 329 330 329 328 328 327 326 325 324 325 324 322 320 318 316 315 316 315 316 316 316 316 316 319 316 316 317 318 316 315 314 314 315 315 315 314 313 312 313 314 314 314 313 312 312 311 310 310 310 309 310 310 310 308 308 308 308 310 309 309 312
324 325 325 325 325 326 326 325 326 326 326 325 324 324 324 324 323 323 323 323 324 324 324 325 325 325 325 325 324 324 324 324 323 322 323 322 320 317 315 314 313 314 314 314 314 315 317 314 315 313 314 313 313 314 314 314 314 314 313 312 311 312 313 314 312 311 310 310 310 310 310 311 310 309 310 310 308 307 307 306 306 308 308 309 311
323 324 324 324 324 324 324 324 325 324 324 323 323 323 322 322 321 320 320 321 321 322 321 321 322 322 323 322 323 323 321 321 320 318 319 318 317 315 313 312 312 312 312 313 312 313 313 312 312 311 311 313 313 312 313 313 313 311 311 310 311 311 311 311 310 309 309 309 308 309 309 310 309 310 310 308 308 308 307 304 306 308 305 305 308
323 323 324 323 323 323 324 324 324 323 322 322 322 321 321 320 320 319 318 319 319 318 318 319 319 319 319 319 319 318 317 317 317 316 316 316 316 314 313 312 311 312 311 311 313 314 312 312 311 310 311 311 312 312 312 312 312 311 309 309 310 310 310 309 309 309 309 308 308 307 307 308 307 308 308 307 306 305 304 304 304 304 304 303 305
323 323 323 323 323 323 323 323 322 321 321 321 320 320 319 319 319 318 317 317 317 316 316 316 317 318 318 318 318 318 317 316 316 316 315 315 315 314 313 312 311 312 311 312 313 312 311 311 311 309 309 309 309 309 311 310 310 311 309 309 310 310 309 309 308 307 308 307 306 307 308 307 307 308 307 306 307 305 303 303 301 298 299 300 300
322 322 322 323 323 322 322 322 321 320 320 319 319 319 318 317 317 316 316 316 316 316 315 315 315 316 317 317 318 318 318 316 315 315 315 315 314 313 312 312 312 311 311 310 311 310 309 308 308 307 308 308 308 308 308 308 309 308 307 307 307 312 308 307 307 307 306 306 306 307 306 305 306 305 305 305 304 304 302 302 301 299 296 294 297
322 322 322 322 322 322 321 321 320 320 319 318 319 319 317 316 315 315 315 314 314 314 314 314 313 314 314 315 316 316 315 314 313 313 314 314 313 312 312 312 313 311 312 311 309 309 309 308 307 306 307 306 306 307 307 307 308 307 306 306 306 306 308 306 306 305 305 305 305 305 304 303 303 303 303 303 303 302 301 301 300 298 298 295 294
322 322 322 321 321 321 321 321 321 320 319 319 318 317 317 316 315 314 313 313 313 314 314 314 314 313 313 314 315 315 314 314 313 313 313 313 313 313 311 311 311 312 312 312 308 307 307 310 305 305 305 305 305 306 306 307 306 306 306 305 305 305 304 305 306 305 304 304 304 303 302 301 302 301 301 301 301 300 300 300 300 300 299 296 295
321 320 320 320 320 321 320 320 321 321 320 319 318 317 316 315 314 314 313 313 313 314 314 314 314 314 315 314 314 313 313 313 314 314 314 313 312 311 310 309 309 311 310 306 306 305 304 303 303 303 303 303 303 304 305 305 305 304 305 304 304 304 303 303 304 305 304 303 302 301 301 300 301 300 300 300 299 299 298 299 299 299 299 298 296
320 320 320 320 320 320 320 320 320 320 319 318 317 316 314 314 313 313 313 313 313 313 314 313 314 313 313 313 313 313 313 312 312 312 310 310 310 309 309 308 308 308 306 305 304 303 303 302 302 302 301 301 302 302 303 304 304 304 304 303 303 303 302 302 302 303 303 302 301 300 299 299 299 299 298 298 298 298 298 298 298 298 297 297 297
320 320 319 320 319 319 320 320 320 319 319 317 316 314 313 313 312 312 311 312 311 312 312 312 313 312 313 311 312 312 312 312 311 310 310 310 310 310 308 308 307 306 306 304 303 302 302 301 300 301 300 300 300 300 302 302 303 303 303 303 303 303 302 301 302 301 302 301 300 299 299 299 299 297 297 297 297 297 297 297 297 297 296 296 296
320 319 319 319 318 319 319 319 319 317 316 315 314 313 312 312 312 311 311 310 309 310 310 311 312 311 310 310 310 310 310 311 310 309 309 309 308 307 308 306 305 305 304 304 303 302 301 300 299 299 298 298 299 299 300 301 302 302 302 304 303 301 301 300 300 299 300 301 299 298 298 298 298 297 296 296 296 296 296 295 295 296 295 295 297
319 318 318 318 318 318 318 317 317 316 315 314 313 312 311 311 311 310 310 309 310 310 310 310 310 310 309 309 309 309 309 309 308 308 307 307 306 306 307 305 305 305 305 303 302 301 300 299 298 298 297 297 297 298 298 299 300 300 301 301 302 301 300 299 299 299 299 299 298 298 297 298 298 296 296 296 296 296 296 295 294 295 295 295 296
318 318 318 318 318 317 317 316 315 314 314 313 313 312 311 311 310 310 309 309 310 311 311 310 309 309 309 309 308 308 308 307 306 306 305 305 306 306 306 304 304 303 302 302 301 300 299 298 297 296 296 295 296 296 296 297 298 299 299 301 301 300 300 299 299 299 299 298 297 297 297 297 296 295 295 295 295 295 294 294 294 295 295 295 295
317 316 316 316 316 315 315 315 314 314 313 313 312 311 310 309 309 308 308 309 310 310 310 310 309 309 308 307 307 307 307 306 305 305 305 305 304 304 305 304 303 303 302 301 301 299 298 297 296 295 295 295 294 295 295 295 297 298 299 300 300 300 299 299 299 299 302 298 298 296 296 296 296 294 294 294 294 293 294 294 293 294 294 295 295
315 315 315 314 315 315 314 314 314 313 313 313 311 311 310 308 308 308 308 308 309 310 310 309 309 308 307 307 306 306 305 304 304 304 304 304 305 304 303 304 303 302 301 300 299 299 298 296 295 295 294 294 294 294 293 294 295 296 298 299 300 300 299 299 299 299 298 299 297 296 296 296 295 294 293 293 293 292 293 293 293 294 295 295 295
315 314 315 314 314 313 313 313 313 313 313 312 310 309 308 308 307 308 308 308 308 309 309 308 308 307 306 306 306 305 305 305 304 304 304 304 304 303 303 303 304 302 301 300 299 298 298 296 295 294 294 293 293 293 292 293 294 295 296 298 299 298 299 299 299 298 298 298 297 297 297 296 295 294 293 293 292 292 293 292 294 294 295 294 294
315 314 314 313 313 313 312 313 313 313 313 310 309 308 308 307 307 307 307 307 308 308 308 307 306 306 306 305 304 304 304 304 304 304 303 303 303 303 303 304 303 301 301 300 299 298 298 297 295 294 294 294 293 292 292 292 293 294 295 296 298 299 298 297 298 298 298 297 297 297 297 297 296 295 295 294 293 292 293 292 293 294 294 294 294
313 313 313 312 312 312 312 312 312 312 310 309 308 307 307 307 307 307 307 307 308 308 307 306 306 305 304 304 304 304 304 304 304 303 303 303 303 302 302 302 303 302 301 299 299 298 297 296 295 294 293 293 292 293 293 293 292 293 294 295 296 298 298 297 297 297 296 296 296 297 297 298 301 301 300 298 297 296 294 292 293 293 294 293 293
313 313 313 312 312 312 312 312 311 310 309 308 307 307 307 306 306 307 307 307 307 306 306 305 304 303 303 303 303 303 303 303 303 302 302 302 302 302 302 301 301 301 299 299 297 297 295 294 294 293 293 293 292 293 294 294 294 293 293 294 296 298 297 296 297 296 295 296 296 296 300 302 301 300 299 296 295 295 296 295 294 293 293 293 293
313 313 312 312 312 312 312 311 310 309 309 308 307 307 306 306 306 306 306 307 307 305 305 303 302 302 302 302 302 302 302 302 302 301 301 302 301 302 301 301 301 301 299 298 297 295 294 293 292 292 291 292 292 293 293 292 292 294 294 293 295 297 297 296 296 295 294 296 295 295 294 299 300 299 298 296 294 294 293 294 294 296 297 295 293
313 313 312 312 311 311 311 310 310 309 308 308 307 307 306 306 306 306 306 307 306 304 303 302 302 302 302 302 301 301 301 301 301 301 301 301 301 300 300 300 300 300 300 298 296 295 294 293 292 291 291 292 292 294 291 292 292 292 295 295 295 297 298 296 295 295 295 295 294 294 294 296 296 297 296 293 294 294 293 293 293 294 295 295 294
313 312 311 311 311 311 311 311 310 308 308 307 308 306 306 307 307 307 307 306 304 303 302 301 301 301 301 300 300 299 299 299 300 300 300 300 299 299 299 299 299 300 299 299 297 296 294 293 292 291 290 291 290 293 292 292 292 292 293 296 297 297 298 295 295 296 294 294 294 294 293 295 295 299 299 292 291 291 294 294 294 295 296 296 293
313 312 312 312 312 312 312 311 310 309 309 308 307 307 307 307 307 306 305 304 302 302 301 300 300 300 299 299 299 298 298 299 299 299 299 299 299 298 298 299 299 299 298 298 298 296 294 293 292 291 290 290 290 293 292 292 292 292 293 295 297 298 297 295 296 296 295 293 293 292 291 292 291 293 293 292 291 290 290 290 292 293 294 296 295
312 311 311 311 311 311 311 310 309 309 308 308 307 307 307 306 306 305 303 303 302 301 299 299 299 299 298 298 298 298 298 299 299 299 299 299 299 298 299 299 298 297 297 297 297 296 295 294 292 292 291 290 292 292 291 291 291 292 293 295 295 297 296 296 295 295 294 293 293 294 292 291 291 291 294 293 291 290 289 290 291 292 293 293 293
311 311 311 311 311 311 311 310 310 309 308 308 307 307 306 305 306 304 302 301 301 299 298 298 297 297 297 298 298 298 298 298 299 299 299 298 298 298 298 298 298 296 296 296 296 297 295 293 293 292 291 289 290 292 291 292 291 291 294 295 293 294 293 294 294 295 294 293 292 292 291 291 292 291 295 292 292 292 289 289 290 291 292 293 293
312 312 311 312 312 312 311 310 309 308 308 307 308 307 306 305 304 302 302 300 299 297 297 297 297 297 297 298 298 298 298 298 298 298 297 297 297 297 297 298 296 296 295 294 294 294 295 294 293 292 291 289 289 291 291 292 291 291 293 293 292 292 292 292 293 294 294 294 294 293 292 292 292 291 294 291 291 293 289 289 289 290 291 292 292
312 312 312 312 312 312 311 310 308 307 308 308 307 307 306 304 302 300 299 298 297 296 296 296 296 297 298 298 299 298 298 298 297 297 297 297 297 297 297 298 296 295 294 293 293 293 293 293 293 293 292 290 288 292 292 291 291 292 293 291 291 290 290 291 292 293 295 293 295 302 302 294 292 293 293 292 291 292 289 289 288 289 290 290 291
312 311 311 311 311 311 310 309 308 306 307 307 307 306 305 302 300 299 297 296 296 296 296 296 297 297 298 298 298 298 297 297 297 296 297 296 296 297 298 298 297 296 295 294 295 293 293 292 292 295 299 292 290 292 292 291 291 291 292 291 291 289 289 289 290 291 293 293 293 297 299 297 295 294 292 291 291 292 289 289 288 288 289 289 290
312 312 312 312 311 310 309 308 307 306 307 307 306 306 303 300 298 297 296 296 296 297 297 297 297 297 297 298 298 298 297 297 296 296 296 296 297 297 296 297 296 296 296 295 295 294 293 293 294 295 296 293 290 290 291 292 291 291 292 292 291 288 289 289 289 292 292 291 292 292 295 293 292 292 291 291 291 291 290 290 289 288 289 289 291
311 311 308 311 310 309 308 308 307 307 307 307 306 304 301 299 298 297 296 296 297 297 297 297 297 297 298 298 298 298 297 297 297 297 297 297 296 296 296 296 295 295 295 295 295 295 295 294 293 294 294 292 293 290 291 291 291 292 291 291 289 289 288 289 288 290 290 290 291 291 291 294 292 291 291 291 291 291 291 291 290 289 290 291 291
311 309 309 310 309 309 308 308 308 307 307 307 305 302 300 299 297 296 297 298 298 297 297 297 297 297 298 298 298 298 298 299 298 298 296 296 296 297 297 296 296 295 295 295 294 294 294 294 294 294 292 292 297 297 290 291 291 291 291 291 290 289 289 289 289 288 289 290 290 290 291 293 291 291 290 291 291 291 291 293 291 290 290 290 291
309 309 309 309 308 308 307 307 307 307 307 306 304 300 299 299 298 297 298 298 298 297 297 297 297 298 298 298 298 298 299 300 299 298 296 296 296 297 296 296 296 295 295 295 295 294 293 293 293 293 291 290 290 293 294 291 291 291 291 290 290 289 290 291 288 289 288 290 290 290 292 294 291 290 290 290 291 291 292 291 290 290 290 290 292
310 310 309 308 308 307 307 307 307 306 306 304 302 300 299 299 298 299 298 298 298 298 298 298 298 298 298 298 299 299 299 298 298 298 297 296 296 296 296 297 295 294 293 294 294 295 293 292 293 292 293 291 290 289 292 292 291 290 290 290 290 290 290 290 290 290 289 289 290 290 291 290 290 291 290 290 290 291 291 290 290 291 291 291 290
308 309 308 308 308 306 306 305 305 304 304 303 302 300 299 298 299 299 298 298 297 297 297 297 297 297 297 298 298 298 298 297 297 297 297 296 296 296 295 295 295 294 294 293 292 294 293 292 290 291 290 291 291 290 289 291 292 291 290 290 290 290 291 291 291 291 290 291 291 290 290 290 290 291 290 290 291 291 291 290 291 291 294 290 289
309 308 307 308 308 307 305 303 304 304 303 302 302 301 299 299 299 299 298 298 298 297 297 297 297 297 298 299 298 298 298 298 298 297 297 296 297 296 295 294 294 293 292 292 291 291 291 292 290 289 288 288 289 287 287 287 292 292 291 290 290 290 292 292 292 291 291 290 290 290 290 291 291 291 292 289 289 291 290 290 291 293 289 289 288
308 308 306 307 307 305 303 303 302 303 303 302 302 302 301 300 299 299 299 298 298 297 297 297 297 298 298 298 297 297 296 297 297 297 297 298 296 295 294 293 291 291 292 291 292 292 291 290 289 289 288 288 287 286 286 285 285 286 286 288 289 290 292 291 290 290 290 289 290 291 290 290 290 291 290 290 290 290 289 290 288 290 288 288 289
308 307 307 307 305 304 303 302 302 303 303 302 302 302 301 300 300 300 299 298 298 297 297 297 297 297 297 297 297 294 296 296 296 297 296 294 293 293 292 291 291 292 290 291 292 290 290 290 289 288 288 287 286 285 285 285 285 286 286 286 287 288 287 286 287 288 288 289 290 290 290 290 289 289 289 288 287 288 287 287 289 288 288 288 291
307 307 306 306 304 303 303 302 302 303 303 302 302 301 301 300 300 299 299 298 297 296 297 297 297 296 297 297 297 297 296 294 292 292 292 293 293 292 290 289 289 290 293 294 293 292 291 290 289 288 287 288 286 285 286 289 286 289 287 286 287 286 287 286 290 289 289 289 288 288 287 287 286 285 286 286 287 286 286 287 288 289 288 287 288
307 307 307 306 304 304 303 303 303 303 302 302 301 301 301 300 300 299 299 298 297 297 296 296 296 296 296 296 297 296 296 294 292 291 291 290 289 291 291 290 289 289 290 291 290 290 292 291 290 289 288 286 285 287 290 289 289 289 289 289 289 289 289 288 289 289 288 285 284 283 283 285 286 284 284 284 285 284 284 285 286 287 287 286 287
307 306 306 304 304 304 303 303 303 303 302 301 301 300 300 300 300 300 299 298 297 296 295 295 295 296 295 296 296 295 295 294 292 291 291 290 290 289 288 289 289 289 288 288 288 287 286 290 292 290 290 290 290 290 289 289 289 289 289 289 289 289 289 289 289 287 283 282 282 283 283 284 283 284 283 284 285 283 284 284 285 285 285 285 285
Wind_Speed
9 8 8 7 7 5 4 4 7 8 9 9 10 11 12 11 10 9 8 8 8 7 5 5 5 6 4 5 5 3 4 6 6 4 4 3 3 3 2 3 4 4 3 0 4 5 1 5 1 2 3 2 3 3 3 3 3 3 3 3 4 5 4 5 6 5 4 4 4 5 7 6 6 5 2 2 4 6 4 4 4 3 4 4 4
9 8 8 8 7 7 5 4 5 10 8 7 9 10 9 9 9 9 8 7 8 8 6 5 2 3 4 5 6 4 5 6 6 4 3 3 3 2 4 2 1 4 2 3 5 2 3 4 4 4 5 6 4 5 5 4 4 5 4 4 4 4 4 5 8 8 3 5 6 6 5 6 5 2 2 2 5 5 4 4 4 4 5 5 4
9 9 8 7 9 8 6 5 4 4 7 8 9 10 9 8 6 6 6 7 7 8 7 6 3 2 2 4 6 5 5 5 5 4 3 3 4 3 1 4 1 2 3 6 6 5 4 4 5 5 6 6 7 7 7 7 6 7 6 5 5 3 3 4 7 7 5 7 5 1 4 6 6 4 5 8 6 5 5 4 4 4 5 5 4
10 9 8 7 7 7 7 6 4 5 6 7 7 9 7 7 7 6 7 6 6 6 7 6 5 3 3 5 6 6 5 6 6 5 4 4 3 0 2 4 8 9 8 6 5 5 6 6 6 7 7 7 6 6 6 7 7 7 6 6 4 6 6 5 6 7 6 8 5 2 3 2 5 4 8 8 2 6 5 4 4 3 6 4 3
11 10 8 8 7 7 7 7 5 6 6 5 6 7 7 9 8 7 6 7 6 6 8 7 8 6 6 6 7 8 6 5 5 6 4 2 6 6 8 9 9 8 6 6 5 6 6 7 7 6 6 6 6 6 6 6 5 5 6 6 7 4 4 3 5 6 7 7 4 4 3 2 2 6 10 4 5 6 5 7 5 4 6 5 3
13 12 11 9 8 8 7 8 7 6 7 5 3 4 7 8 7 6 5 5 7 6 7 7 8 9 9 8 7 6 5 4 6 7 5 5 7 6 8 9 8 7 7 7 8 6 6 6 6 5 5 5 6 5 5 5 6 6 6 4 5 5 2 4 4 4 3 7 6 5 2 4 6 6 5 7 6 1 3 4 6 8 8 9 6
7 9 9 9 9 9 7 7 7 7 7 5 4 6 7 7 6 5 5 5 5 6 6 6 7 6 6 7 8 8 8 3 3 5 7 7 7 8 8 7 7 7 6 7 8 8 7 7 7 6 6 5 4 5 6 5 5 4 4 5 5 5 5 5 5 5 2 6 6 7 6 5 4 5 5 6 9 3 3 6 6 6 9 9 7
11 10 10 9 9 10 10 8 7 7 6 6 5 6 7 7 7 6 5 4 4 5 6 4 6 5 6 5 7 7 7 7 6 7 7 7 8 8 7 7 7 6 7 7 8 7 7 7 6 6 6 6 5 5 5 5 5 4 4 4 5 5 5 5 5 6 6 6 6 7 5 4 5 3 3 4 4 7 11 4 2 7 9 5 9
11 11 11 10 10 9 9 8 7 8 7 7 6 5 6 7 8 7 6 6 5 6 6 5 5 6 5 6 8 5 7 8 8 8 7 7 8 8 8 6 6 6 7 7 6 6 5 5 5 6 6 5 5 6 5 5 5 4 7 7 6 6 5 4 5 6 6 6 6 5 4 6 4 3 3 4 4 5 5 9 12 8 2 3 8
10 11 10 9 9 9 8 9 9 7 6 6 5 5 5 6 8 9 8 6 6 6 6 7 7 6 6 7 8 6 7 8 7 7 7 7 8 8 7 6 5 6 6 6 5 4 4 4 5 5 5 5 6 6 6 7 6 5 6 6 6 5 5 5 6 6 6 5 6 5 6 6 4 4 5 7 4 3 6 8 8 11 14 9 5
11 11 10 9 9 10 10 10 9 8 7 7 7 6 5 6 8 10 8 6 6 5 6 6 5 5 6 7 9 10 9 8 8 7 7 7 8 7 7 6 6 6 5 5 4 4 5 6 6 6 6 6 6 5 6 5 5 5 6 6 6 6 6 5 6 5 5 6 7 6 7 7 7 8 8 9 8 7 8 6 6 7 7 11 9
12 11 12 12 11 10 10 12 11 10 8 7 6 6 7 7 9 11 9 8 8 8 9 8 7 8 8 9 10 8 7 7 7 7 6 6 8 8 6 7 6 5 5 3 3 5 5 6 6 6 6 6 6 5 5 6 5 5 5 5 5 6 5 5 6 6 7 6 6 6 7 6 7 7 7 8 8 7 7 8 8 9 7 5 7
13 12 12 13 12 12 12 12 11 10 9 7 6 6 7 8 10 12 9 8 8 9 9 8 8 8 8 8 8 8 9 9 9 10 8 8 7 8 7 7 6 6 3 3 4 5 7 7 6 6 6 5 5 5 5 5 5 5 5 4 5 6 5 6 6 7 6 6 6 5 5 6 7 6 7 7 7 6 7 7 7 7 8 9 7
13 12 12 12 12 12 12 12 10 9 9 8 7 7 7 8 9 11 10 9 8 9 9 10 8 8 9 9 9 9 10 11 9 9 8 8 7 8 7 6 6 3 2 4 4 5 6 5 5 5 5 5 4 5 5 4 5 5 5 5 5 6 6 7 6 6 6 5 4 5 6 7 6 6 6 7 7 7 7 9 10 8 7 8 7
13 12 12 12 13 13 12 11 9 8 8 7 6 7 7 8 8 10 11 9 10 9 9 10 9 9 9 9 9 9 9 9 8 7 8 9 8 8 7 6 4 0 2 4 6 6 5 5 5 5 5 6 6 6 6 6 6 5 5 6 6 6 7 6 5 6 6 6 6 6 7 7 7 7 7 8 9 9 9 10 11 12 11 7 8
14 13 13 12 13 12 11 10 9 7 7 7 8 8 8 8 9 9 10 10 9 10 9 9 9 9 10 10 10 10 9 8 8 7 8 8 7 7 7 4 1 1 3 5 5 5 4 5 5 6 6 6 6 6 6 6 6 6 6 6 6 4 5 6 5 6 7 7 7 7 8 9 9 9 9 9 9 9 9 9 9 9 11 12 10
14 14 12 13 12 11 10 10 9 8 7 8 8 8 9 9 9 10 9 9 9 9 9 9 9 10 9 10 10 10 10 10 9 9 9 8 7 7 5 1 0 2 5 4 4 4 4 5 6 6 7 6 6 5 6 5 5 5 6 6 5 4 5 5 6 7 7 8 9 11 10 9 9 9 9 9 9 9 8 8 8 8 9 8 10
15 14 13 13 13 12 10 9 10 9 8 8 10 9 9 8 9 9 9 9 8 9 8 8 9 9 9 9 9 9 9 9 8 8 7 7 6 4 3 1 2 4 4 4 4 5 6 6 6 6 6 6 6 5 5 5 5 6 5 5 4 5 6 6 6 7 8 9 10 10 9 9 9 9 8 9 9 8 8 7 7 7 7 7 8
14 14 13 13 12 12 10 10 11 11 9 10 11 11 10 8 8 8 9 8 8 7 7 8 8 6 6 8 9 8 8 7 7 7 5 4 4 3 4 4 5 5 6 5 6 6 7 7 6 6 6 7 6 6 5 5 4 6 5 6 6 6 6 7 7 8 8 9 9 11 9 9 8 9 8 8 9 8 8 8 8 8 8 8 8
14 14 13 13 13 12 12 12 12 12 11 11 11 10 11 9 9 8 8 8 8 8 7 8 8 7 7 7 7 8 8 7 7 7 7 5 4 6 6 6 6 6 6 7 7 7 7 7 7 7 7 7 7 6 6 5 4 5 5 6 6 6 7 7 8 7 6 8 9 10 10 8 8 7 8 8 8 8 8 7 8 7 7 7 8
15 14 14 13 13 13 12 11 11 10 10 10 10 11 10 9 9 8 9 8 8 7 8 8 7 7 6 6 6 6 7 6 6 5 5 5 6 6 5 5 6 6 6 6 7 7 7 7 8 7 7 6 7 7 6 6 5 5 5 5 6 6 8 7 7 7 7 8 9 9 9 9 8 9 8 8 8 9 8 7 7 7 7 6 7
16 15 14 13 14 13 11 11 10 11 12 12 10 10 10 9 9 8 8 8 8 8 8 7 6 7 8 7 6 5 7 6 7 7 8 8 7 6 6 7 7 6 7 7 7 6 7 8 8 8 7 7 7 7 7 7 8 6 5 4 5 7 7 6 5 6 7 7 8 10 9 9 9 9 9 8 8 9 9 9 9 8 8 8 8
16 16 14 13 13 12 13 13 12 12 13 12 11 10 10 10 9 8 9 8 8 7 6 5 5 6 6 6 6 6 7 8 8 7 7 8 7 7 6 6 6 6 7 8 8 8 7 7 8 8 7 7 7 7 7 8 8 8 6 5 5 6 6 5 6 6 7 8 9 9 9 8 7 8 8 7 8 9 8 9 10 8 8 9 9
15 15 14 13 13 13 13 13 11 11 12 12 10 10 10 9 9 9 9 9 9 7 6 5 6 8 7 7 7 7 8 8 7 6 7 6 6 6 6 7 7 8 8 8 8 8 8 8 8 8 8 8 8 8 8 7 8 7 8 5 6 6 5 6 6 7 8 9 8 8 7 7 7 7 8 8 9 9 9 9 9 8 9 10 10
15 16 16 15 14 14 12 12 11 11 10 10 12 11 10 9 8 9 9 8 7 7 8 7 7 8 7 8 8 7 7 7 7 6 6 7 7 7 6 6 6 7 6 8 8 7 8 8 9 8 8 8 8 8 8 8 7 7 6 6 4 5 5 5 7 8 8 8 8 7 6 5 6 8 8 9 10 11 9 8 8 9 10 9 7
16 16 16 17 15 12 12 12 10 10 10 10 12 11 9 9 10 9 9 8 7 7 8 8 6 7 8 9 8 7 7 7 7 7 7 6 7 6 7 6 8 9 9 8 8 7 8 8 8 8 7 7 7 6 7 6 7 7 7 7 5 4 4 5 6 8 8 7 6 6 5 6 7 8 8 8 9 10 9 9 9 9 8 7 8
17 16 14 15 15 15 13 13 11 10 10 8 10 11 11 11 11 9 8 8 8 8 8 7 7 8 9 8 8 7 6 6 6 6 6 6 6 6 7 7 7 8 9 8 7 8 7 8 8 7 7 6 6 6 6 6 6 7 6 6 6 4 4 4 6 7 7 6 5 5 5 6 7 7 8 8 9 9 8 7 7 7 8 8 8
14 14 16 16 16 16 15 14 13 12 11 11 10 11 11 11 11 10 9 8 7 8 7 7 8 8 8 8 7 6 7 7 7 7 7 7 6 6 5 5 7 8 8 8 8 8 7 7 7 7 6 5 6 7 7 6 6 5 5 5 4 2 4 4 6 6 5 5 4 4 5 6 5 6 7 7 6 7 7 7 6 6 7 8 8
17 17 16 17 17 17 16 14 13 14 13 14 11 11 10 10 10 10 9 9 8 7 8 9 8 8 8 7 7 6 6 6 7 7 8 7 7 6 6 7 7 8 8 9 8 8 7 7 6 6 6 6 7 7 5 5 6 6 4 4 4 3 4 4 5 6 5 5 4 4 5 5 8 10 11 9 8 7 5 6 7 7 7 8 8
18 18 17 16 17 17 16 14 15 14 16 14 12 11 10 11 11 11 10 9 8 7 9 9 8 8 8 8 8 7 8 8 7 7 6 6 6 6 7 7 8 9 9 9 9 8 7 7 7 7 7 7 7 5 6 6 4 2 3 3 3 3 3 3 5 5 4 4 6 6 6 12 8 7 9 12 13 12 10 7 6 6 6 6 7
16 16 17 17 17 16 15 16 15 15 15 14 12 11 10 11 11 11 10 9 7 9 10 9 9 8 8 8 8 8 7 7 7 8 8 8 8 7 7 7 7 7 9 9 9 9 7 7 7 6 6 6 5 4 7 7 8 8 4 3 3 2 3 4 4 5 4 6 6 5 4 6 5 5 5 11 13 14 13 14 14 12 9 6 6
16 14 14 17 18 17 17 17 15 14 15 14 12 11 12 12 11 11 10 8 9 10 10 10 9 8 9 9 8 8 8 8 8 8 8 7 7 7 6 6 7 7 7 8 9 8 7 6 6 6 5 4 4 7 10 11 11 10 7 3 3 3 3 5 4 5 5 6 5 4 4 2 3 4 4 5 9 13 14 14 15 14 12 11 7
17 16 16 17 17 16 17 16 13 15 14 14 13 12 12 11 11 10 9 10 10 10 10 10 9 9 9 8 8 9 9 9 9 8 7 7 7 6 7 7 6 5 6 8 8 9 8 6 6 5 4 4 4 8 10 11 11 12 12 7 4 3 3 4 6 5 5 5 4 5 3 3 3 7 4 4 5 7 11 13 13 14 12 12 11
16 16 18 17 14 15 16 15 14 16 15 14 13 12 11 11 11 9 10 11 11 9 9 9 9 9 9 10 10 10 10 9 9 8 8 8 7 7 6 6 6 6 6 6 8 8 7 7 5 5 4 4 4 8 12 13 14 14 14 9 6 5 5 5 5 5 5 5 4 4 4 4 4 4 3 4 5 6 7 7 8 8 7 9 11
16 16 17 17 16 15 14 13 15 16 15 14 12 11 11 10 10 10 10 11 11 11 9 8 10 10 10 10 10 10 10 9 8 8 8 8 8 7 7 6 6 6 6 6 8 7 6 6 5 4 4 4 5 10 13 14 15 15 14 10 7 7 7 8 6 3 4 4 3 3 2 3 6 6 4 5 5 6 6 7 7 8 8 8 8
16 17 15 15 15 14 14 13 13 15 14 14 14 13 12 11 10 11 11 10 10 9 10 10 11 10 10 10 11 10 9 7 8 8 8 7 6 7 7 6 6 6 4 5 6 6 5 5 4 4 4 5 5 11 12 14 15 14 12 7 7 7 7 6 7 4 2 1 2 2 2 5 7 6 8 11 8 6 5 6 8 8 8 8 8
15 16 17 14 13 13 14 13 14 15 16 15 14 13 13 13 12 11 10 9 10 11 11 11 11 10 10 10 9 9 8 9 8 8 8 8 8 8 7 6 7 6 6 5 5 5 5 5 4 5 5 4 4 8 12 13 13 12 8 6 6 6 6 7 5 5 3 1 1 1 1 7 6 6 12 14 12 9 6 7 7 8 8 8 9
15 13 15 15 13 11 12 14 16 16 16 15 13 14 15 13 12 11 11 10 11 10 11 11 10 10 9 9 9 9 10 9 8 8 8 7 7 7 7 7 8 7 6 6 5 5 4 4 5 5 5 5 4 6 9 10 11 12 8 5 5 6 6 6 7 6 5 2 2 6 9 6 6 7 14 17 15 8 7 7 7 8 9 9 10
16 16 15 15 14 13 13 13 15 16 15 13 14 15 14 13 12 12 11 11 11 11 10 10 9 9 9 9 9 9 9 9 8 7 7 7 7 7 7 8 8 7 7 7 6 6 4 4 4 6 8 6 4 4 6 8 8 8 7 4 6 6 7 7 7 7 6 3 4 6 12 11 7 11 17 17 18 11 7 8 7 7 8 10 10
15 16 15 14 14 14 15 15 15 15 15 15 15 13 13 12 12 11 11 11 11 10 9 9 9 9 9 9 8 9 8 8 8 7 7 7 6 7 7 8 7 7 7 6 6 6 5 4 4 5 5 5 4 3 3 7 7 7 7 4 4 6 6 6 6 5 6 6 6 6 8 11 13 15 17 18 17 16 9 8 6 6 8 10 9
16 15 15 15 14 16 17 16 13 15 15 15 14 13 13 13 12 12 11 10 9 9 10 9 9 9 9 9 9 9 9 7 7 7 7 6 5 5 5 6 7 7 7 7 6 6 6 4 3 4 5 4 4 3 2 7 7 7 6 5 3 4 3 4 4 5 5 4 6 7 7 11 14 15 17 18 17 16 14 8 6 6 6 10 10
15 15 14 14 14 14 15 14 13 15 14 13 12 12 13 13 12 12 11 9 9 10 10 9 10 10 10 10 9 8 8 7 6 6 7 7 6 7 7 7 8 7 7 6 5 4 5 5 4 4 4 4 4 5 2 6 8 8 8 6 5 2 1 1 4 4 4 4 6 6 7 11 16 16 16 16 16 14 15 6 9 13 15 16 9
16 15 14 15 14 14 14 14 12 13 12 12 14 14 12 12 12 12 10 10 10 10 10 10 10 10 10 10 9 9 8 6 6 6 7 7 6 7 6 6 6 6 7 6 5 4 4 4 5 5 4 4 4 2 4 5 8 9 9 9 6 3 6 2 3 4 4 6 6 7 8 13 15 15 15 15 14 14 11 8 15 15 13 15 9
15 16 14 14 14 13 13 13 12 11 11 12 15 14 13 12 12 11 10 11 10 10 10 10 10 10 10 9 8 8 7 6 7 7 6 6 7 7 7 7 6 5 6 7 7 6 4 5 6 4 3 3 3 4 5 9 7 9 9 10 9 9 8 5 4 4 4 6 7 8 10 15 14 14 13 12 12 13 10 12 15 15 12 13 7
16 16 15 14 15 15 14 13 11 12 12 13 13 14 14 14 11 11 12 12 11 11 11 10 10 10 9 8 7 7 7 7 6 6 6 7 7 6 6 4 5 5 5 5 4 5 7 7 6 6 4 3 2 2 4 6 9 8 8 9 10 10 10 9 7 5 4 6 10 14 16 15 14 14 12 10 9 11 14 11 14 14 9 7 7
15 14 15 14 14 15 15 15 14 13 12 12 12 13 15 13 12 12 12 12 12 12 11 11 11 10 9 9 8 7 7 7 7 6 6 6 6 6 7 7 6 6 6 6 6 6 6 7 7 6 6 5 4 4 4 3 3 4 5 7 8 8 9 9 7 6 9 13 14 14 15 13 12 10 6 5 6 8 12 12 12 13 5 7 7
16 15 14 14 16 15 15 16 15 13 12 12 12 11 11 12 13 13 12 12 12 12 12 11 11 10 8 8 9 7 7 7 6 6 6 6 5 4 4 4 4 6 6 7 7 6 6 6 7 7 5 5 4 4 3 2 2 3 4 4 6 6 7 7 7 6 8 9 12 11 10 11 9 9 8 7 7 9 8 7 7 7 7 7 7
15 15 14 13 13 15 15 15 14 13 13 13 13 12 13 13 13 13 12 12 12 12 12 12 11 9 8 8 8 10 9 7 7 7 7 5 6 6 7 5 5 6 7 6 6 5 6 7 7 7 6 4 3 2 2 1 2 3 3 3 3 3 4 4 6 6 7 7 7 9 9 7 5 6 7 7 7 7 6 6 7 7 7 6 9
15 17 16 14 13 14 15 15 13 12 13 13 12 13 15 15 14 13 13 13 12 12 12 12 10 8 8 8 8 8 6 6 5 6 5 5 8 8 7 5 2 1 6 8 7 6 4 4 7 7 7 4 3 2 1 5 2 3 2 3 5 5 5 6 4 5 7 6 5 7 7 7 6 5 7 7 7 7 7 7 7 8 7 7 8
14 14 14 13 13 15 15 14 12 12 13 14 14 14 14 14 13 12 13 14 13 12 12 11 9 8 8 8 7 6 7 7 7 8 8 7 9 8 7 8 4 3 6 7 8 4 6 7 6 2 3 5 4 3 5 6 6 5 5 6 7 8 6 6 8 9 4 4 4 4 6 4 6 6 7 7 7 7 7 8 8 8 7 7 8
15 13 13 14 14 14 14 15 13 12 13 14 14 14 14 14 12 12 13 13 13 12 10 10 9 8 9 9 8 7 7 7 7 8 8 8 6 8 12 12 8 5 8 10 11 9 5 5 7 3 1 8 8 6 7 7 6 6 7 7 7 7 7 5 6 7 3 2 3 5 5 5 4 4 5 7 6 6 7 7 8 7 6 7 7
Wind_Direction
111 112 124 125 116 114 106 102 115 119 127 133 132 132 137 140 143 142 145 135 125 133 134 136 134 132 131 132 126 129 106 92 73 66 69 67 46 37 29 27 40 0 293 308 25 28 350 239 277 355 3 13 39 21 10 3 358 351 334 335 347 346 334 342 324 306 321 315 307 300 301 290 278 277 276 262 260 261 263 261 263 260 242 226 225
111 112 116 114 112 109 103 85 123 128 137 134 128 129 129 136 135 137 132 129 127 138 138 133 148 175 149 149 128 107 89 81 88 69 55 45 59 43 23 25 218 229 264 10 54 99 42 14 22 23 24 19 30 27 29 14 18 16 8 10 355 359 351 350 353 350 6 336 320 321 316 311 314 43 91 331 293 281 270 259 250 247 257 249 226
119 114 114 109 111 115 107 104 89 112 135 131 128 128 128 123 124 127 128 131 137 139 131 126 137 174 163 132 124 123 92 92 106 97 81 65 27 47 70 270 258 86 52 49 46 35 30 30 34 31 29 31 39 32 22 20 15 18 14 23 0 358 360 11 13 21 355 321 288 323 323 357 330 357 356 332 324 304 287 267 259 250 261 249 234
129 125 119 120 114 111 112 119 127 114 128 130 134 128 122 123 132 135 136 137 136 135 123 125 130 122 84 95 88 85 105 96 88 91 71 62 25 354 75 66 55 53 48 49 46 39 32 29 25 33 35 41 46 40 28 26 19 17 16 19 15 17 9 3 10 7 15 6 13 330 271 352 336 347 333 309 320 341 342 311 310 327 297 293 264
136 134 138 135 129 127 129 133 134 125 137 144 144 141 137 137 140 145 146 139 133 127 125 128 122 107 100 80 77 81 67 82 94 74 68 53 82 64 53 52 50 48 43 41 36 36 37 40 42 38 40 40 41 42 34 24 19 11 16 25 26 18 12 354 355 10 14 32 9 352 351 25 22 330 324 268 5 329 357 6 350 350 329 321 296
144 148 149 144 134 133 136 142 141 136 143 159 155 133 130 134 137 134 124 124 131 134 136 137 139 139 138 131 122 116 112 104 109 121 126 100 73 72 61 59 60 56 46 41 36 31 37 43 42 39 40 38 41 41 32 22 14 13 10 25 20 10 2 17 2 358 14 35 27 46 324 336 340 325 350 321 340 263 10 10 355 7 7 345 317
128 126 132 137 139 142 151 149 142 142 146 147 139 126 123 129 130 128 127 120 122 129 130 128 126 135 136 137 130 133 126 124 125 103 107 98 89 76 74 64 59 58 47 45 40 36 34 32 32 27 24 28 34 41 36 23 6 8 10 23 18 8 19 33 14 349 357 37 22 22 21 13 354 351 357 321 331 325 70 3 357 8 356 339 351
143 137 136 140 148 154 156 153 144 140 126 127 129 132 134 134 132 125 122 121 115 117 120 120 124 119 115 109 113 114 119 126 108 100 94 100 97 91 84 73 59 54 54 49 45 42 38 36 33 31 29 24 31 36 34 14 11 8 23 26 27 28 25 30 19 17 31 17 11 15 9 2 1 5 18 351 290 317 323 359 43 5 347 336 9
141 139 145 152 152 148 145 141 123 118 128 133 136 136 135 133 128 124 120 117 116 124 126 121 116 121 126 123 113 114 108 101 99 102 108 107 101 98 89 81 66 58 55 54 50 44 40 41 38 37 33 25 32 32 23 13 14 16 27 30 31 24 23 27 43 30 31 22 11 11 0 7 348 351 4 355 0 319 316 344 337 341 352 41 351
130 133 139 137 135 132 126 118 115 116 120 125 123 129 134 130 127 125 123 123 134 133 128 128 131 131 129 130 122 118 105 100 104 111 110 107 99 93 91 80 72 60 53 50 47 42 40 38 41 41 33 27 34 31 21 15 17 33 38 36 25 16 10 33 48 41 35 17 23 9 15 354 360 5 13 1 349 16 346 338 350 344 338 341 360
132 134 131 125 123 127 130 123 117 118 121 126 130 134 132 121 116 104 102 104 106 103 103 108 117 113 115 112 109 108 109 111 110 107 106 103 102 99 92 85 73 66 59 47 42 36 23 32 38 34 33 31 31 26 23 18 20 38 39 31 22 16 6 31 43 42 33 25 22 21 14 8 10 12 7 10 8 359 348 348 341 345 324 320 338
135 136 134 132 132 134 131 126 130 134 132 131 136 133 125 116 104 96 91 91 88 85 81 84 86 91 89 89 91 96 103 103 99 91 83 91 93 91 87 79 65 62 56 34 15 9 31 42 38 35 30 29 28 20 20 24 34 39 35 29 15 12 22 42 51 43 37 35 27 18 16 14 28 23 15 12 10 357 355 345 342 335 322 321 317
140 143 141 141 144 143 140 137 139 142 141 143 143 131 120 110 105 101 95 89 84 82 79 75 75 73 73 75 73 72 69 72 75 76 70 76 81 81 74 70 63 59 23 10 355 34 53 42 35 32 29 25 29 26 16 29 42 45 33 19 18 29 34 45 49 43 43 41 29 16 24 31 32 23 19 17 9 359 357 342 341 339 327 326 333
143 146 145 144 144 144 142 141 143 143 143 144 137 124 117 109 105 103 102 93 87 81 78 74 70 72 72 74 75 76 74 73 71 77 76 76 80 85 81 79 75 53 10 350 359 55 56 48 41 35 32 26 25 21 24 25 38 46 29 20 22 31 37 38 43 43 36 33 26 26 28 34 32 23 22 16 7 1 357 357 345 343 340 328 325
146 150 146 146 146 146 145 141 140 141 140 134 125 118 112 109 108 106 101 94 88 87 81 77 74 73 76 77 77 80 81 79 76 78 80 81 79 87 89 83 95 74 14 34 52 56 55 45 45 42 30 27 25 28 25 25 30 38 27 22 25 38 40 39 42 42 30 19 17 26 42 38 31 23 25 17 18 19 12 6 1 349 342 341 333
148 148 145 145 144 145 140 136 137 136 130 124 118 118 113 109 105 99 97 95 92 86 82 81 78 77 74 76 77 83 86 85 81 73 73 75 77 77 81 88 91 18 29 62 47 63 59 53 50 45 35 29 29 33 33 33 30 35 26 25 35 33 38 39 42 34 28 23 29 42 44 34 31 25 27 24 28 23 18 12 7 3 352 337 339
149 150 148 144 143 143 138 137 136 132 128 125 120 116 111 108 102 99 93 90 88 87 87 84 82 81 78 80 82 84 85 88 88 83 80 80 84 86 96 156 51 60 81 69 62 51 63 63 55 47 38 30 28 30 34 33 34 33 29 28 33 18 30 34 41 39 32 31 38 45 45 37 32 29 27 27 23 23 16 10 10 6 357 346 341
146 146 146 145 144 143 139 137 136 134 131 115 110 108 104 104 106 103 99 96 92 90 87 84 83 82 84 82 76 76 86 89 89 87 85 88 95 121 130 61 46 86 86 78 67 56 45 51 54 48 39 32 29 27 31 33 38 34 30 30 28 32 36 36 38 41 34 44 50 51 45 40 34 29 30 25 23 17 11 9 13 6 359 352 343
145 148 147 147 147 147 140 138 136 132 121 116 112 109 109 106 105 103 104 104 102 98 94 91 88 90 88 81 82 86 85 89 92 97 103 122 130 103 100 102 80 66 66 62 63 59 57 48 49 47 40 34 26 24 23 29 36 42 31 29 22 33 41 42 36 40 46 52 53 50 43 41 33 31 28 29 22 18 10 6 9 4 360 354 344
149 149 149 148 148 143 140 139 136 132 127 125 120 118 117 118 112 111 109 111 110 106 105 102 98 97 96 93 100 105 108 108 116 129 135 127 105 101 87 75 77 75 74 73 64 61 57 55 48 45 39 33 27 18 17 23 31 45 38 34 27 36 40 46 48 46 53 56 57 53 44 38 34 30 30 24 21 13 9 6 3 2 354 351 344
151 149 148 148 144 141 139 134 128 122 123 124 123 121 121 120 121 121 121 115 105 104 105 111 121 121 118 112 113 119 125 133 127 118 116 108 95 82 79 80 71 67 73 72 73 67 61 57 52 46 41 34 26 18 12 17 22 36 38 37 35 40 47 48 52 50 53 59 59 55 48 40 34 32 20 18 16 9 6 5 358 354 348 346 347
150 146 145 145 141 141 137 130 130 125 131 130 125 123 124 125 126 121 111 106 107 108 112 115 117 123 123 129 131 123 122 115 106 102 93 90 87 83 82 75 76 73 72 69 70 68 65 59 55 46 39 32 24 20 15 14 19 10 28 30 41 45 52 52 47 48 52 59 60 58 48 42 35 29 18 15 9 5 1 358 357 352 347 348 350
148 145 144 143 142 142 140 141 140 133 136 133 132 129 129 126 123 121 118 118 118 121 121 122 121 114 114 117 113 106 104 105 103 98 100 100 96 92 85 85 83 78 71 74 71 68 63 62 61 52 42 33 22 19 15 18 15 14 4 27 36 52 54 49 44 48 58 60 57 54 51 44 28 24 18 10 6 2 356 355 352 350 350 350 351
143 141 138 140 139 139 141 147 139 133 139 141 136 134 133 131 131 128 128 130 133 137 132 124 117 114 111 102 99 100 97 97 97 97 98 98 99 100 100 96 97 93 87 77 75 69 65 61 57 52 45 36 26 19 18 16 15 8 6 0 48 51 49 46 47 55 61 62 60 55 48 42 28 26 17 11 5 1 0 358 353 351 356 357 353
143 143 142 140 140 145 145 146 143 140 142 132 135 141 140 135 128 128 128 131 130 127 128 124 117 113 105 102 100 95 95 96 100 99 98 96 94 93 88 87 81 84 84 86 78 71 68 61 55 50 45 39 31 23 20 14 10 5 6 358 38 58 48 49 58 63 66 69 61 56 48 43 32 31 19 17 4 5 4 360 357 359 359 354 337
144 144 146 146 147 144 144 146 146 147 145 136 140 142 134 123 126 126 128 129 127 127 130 132 129 117 113 110 106 103 104 106 105 102 103 102 102 97 95 92 96 94 91 87 85 78 73 68 60 54 49 44 36 30 25 14 6 3 2 5 6 55 46 56 65 68 67 64 63 51 48 53 44 36 23 15 7 4 3 2 360 358 344 322 321
149 150 150 146 145 149 149 149 153 150 151 133 133 132 128 128 129 129 130 128 129 133 138 135 126 122 116 114 115 115 113 109 105 103 100 96 98 106 108 108 103 100 100 97 91 87 77 72 64 55 50 43 36 32 25 12 7 5 2 1 357 33 51 55 69 75 71 64 60 52 53 61 53 37 25 17 7 2 1 356 346 333 326 324 320
149 150 151 153 151 149 153 158 155 153 145 129 135 133 133 132 132 133 131 130 136 145 140 126 126 122 120 120 120 118 113 109 105 100 96 95 91 88 94 104 110 107 102 99 93 85 80 74 65 60 50 46 40 33 22 11 3 360 356 349 356 354 65 62 77 81 77 69 54 52 60 62 61 33 23 12 17 1 354 344 332 329 327 329 328
155 158 157 156 155 155 159 158 153 150 137 140 137 136 131 128 130 132 136 141 152 152 137 130 126 125 125 124 119 115 111 106 107 106 103 101 96 90 86 85 92 100 99 95 88 81 78 73 66 58 50 42 41 29 20 1 348 353 353 340 342 336 73 69 82 85 78 69 51 48 65 62 41 28 12 4 6 8 359 339 330 332 337 339 336
163 161 159 158 155 157 159 154 154 149 142 143 143 142 139 137 138 141 147 158 158 144 135 131 129 129 128 124 119 115 112 112 109 106 106 101 97 93 87 86 91 99 100 97 92 87 79 72 62 48 43 40 33 24 6 355 356 333 327 330 342 341 70 71 92 91 72 61 52 53 41 49 50 21 4 358 354 355 352 344 325 320 321 330 336
163 162 159 157 155 156 157 156 154 151 145 143 146 144 140 140 144 150 156 161 149 138 133 134 134 136 133 127 125 124 120 114 107 103 102 99 97 94 88 86 89 99 106 106 101 95 87 77 69 57 46 42 31 9 358 17 20 13 4 350 351 330 54 46 87 103 86 63 62 59 48 31 30 357 350 356 348 348 345 342 336 324 314 321 334
161 162 157 158 158 157 159 160 157 149 145 145 145 150 146 147 150 155 157 150 138 135 136 138 142 139 133 131 128 122 116 113 109 108 106 103 98 96 95 93 93 97 108 110 106 103 95 84 75 65 54 37 27 6 16 18 17 15 11 353 341 350 44 34 60 93 80 75 72 57 36 23 351 356 348 358 345 340 338 335 333 328 322 323 332
162 159 161 163 162 157 158 162 156 149 147 146 148 151 150 150 154 158 153 142 138 141 144 144 144 138 130 123 117 115 114 113 116 116 113 108 106 103 101 97 96 100 96 109 118 105 98 92 81 73 60 37 34 12 23 24 20 17 12 10 348 331 42 48 61 83 92 88 83 62 33 353 330 342 347 353 345 334 331 328 324 325 321 320 325
164 161 160 162 160 161 161 160 150 149 146 145 147 146 146 151 157 152 145 142 141 145 147 144 134 124 122 120 117 117 118 123 126 124 121 121 120 119 114 108 101 89 87 94 109 111 108 102 98 87 67 48 35 15 28 26 24 20 15 19 7 5 21 24 63 108 108 103 95 84 44 359 346 350 337 357 338 332 325 322 320 316 312 309 310
162 161 161 161 162 158 156 150 150 149 145 143 144 148 149 154 153 146 142 138 145 149 145 132 124 124 123 124 125 126 133 140 137 134 134 135 135 130 123 123 115 109 100 95 107 119 117 115 110 93 69 47 27 25 32 29 26 22 16 23 21 28 31 33 23 62 104 119 119 113 84 12 7 351 337 4 345 328 321 314 312 310 306 304 297
165 158 158 158 160 160 159 153 143 143 143 146 150 153 156 152 146 142 141 148 148 140 131 127 126 129 131 134 138 143 147 144 137 135 133 130 127 123 122 119 110 104 95 82 83 108 124 125 120 102 80 50 26 26 34 33 30 24 22 26 25 28 28 28 27 14 12 110 135 101 49 18 5 342 339 351 352 330 318 313 310 304 305 302 298
157 156 156 158 156 161 158 145 142 146 146 150 154 154 150 147 146 144 140 146 139 134 132 131 133 137 142 149 150 146 139 133 131 126 123 122 121 121 120 115 110 111 104 97 103 106 126 134 130 113 94 67 42 26 34 32 30 29 30 26 27 25 22 20 19 12 350 312 175 163 8 20 353 337 335 340 346 344 322 316 307 304 302 306 303
151 154 155 156 157 154 148 143 144 149 152 153 153 147 146 146 147 142 143 142 137 137 137 138 144 148 150 146 140 135 132 130 129 129 130 133 133 132 131 128 126 127 124 130 122 112 112 127 139 135 117 93 59 34 42 32 28 25 31 36 29 33 21 18 6 8 3 316 316 347 357 6 349 331 332 336 339 345 325 315 312 309 312 313 307
156 156 160 158 156 150 146 139 143 149 155 150 145 145 145 146 144 141 141 141 143 144 145 146 148 146 142 137 133 129 128 128 130 132 133 135 140 145 143 138 142 141 145 145 138 131 136 130 123 125 126 105 83 51 47 43 32 26 28 23 32 30 29 11 3 355 355 349 315 329 345 340 343 328 332 333 333 338 326 318 311 310 310 312 307
157 160 159 157 150 145 153 152 148 151 151 146 145 145 143 143 143 140 142 147 151 150 145 142 141 137 134 130 128 126 126 128 132 132 133 141 147 142 144 143 143 144 149 151 150 150 151 164 156 120 126 122 101 61 46 59 40 30 30 31 27 42 23 5 353 349 344 341 350 337 326 324 331 331 330 330 329 330 330 318 318 315 313 312 318
158 161 154 155 157 156 157 154 147 149 151 149 148 143 146 147 145 143 148 153 151 142 138 139 135 131 128 125 125 128 132 136 139 143 145 141 135 134 130 127 138 143 144 150 154 160 157 167 153 122 122 133 137 122 67 62 46 43 42 41 26 35 23 3 344 335 332 328 333 328 317 320 329 332 329 327 327 328 330 326 321 319 314 308 319
151 152 155 154 156 155 153 151 151 150 147 148 144 141 146 146 145 148 154 151 142 139 135 134 132 128 126 125 128 130 132 137 138 130 126 128 131 127 129 135 142 147 148 149 150 151 150 153 142 119 113 121 147 145 119 60 55 48 50 40 30 8 47 337 348 336 321 335 330 321 322 319 328 330 325 322 325 331 334 333 327 346 346 345 342
151 158 159 154 154 154 153 150 152 148 147 147 143 144 148 147 150 154 149 142 139 135 133 131 128 126 126 128 130 133 134 135 133 135 133 135 131 125 130 135 145 145 146 154 165 160 148 131 125 127 125 124 110 98 119 74 52 47 30 34 33 5 356 35 20 336 311 325 326 325 317 323 325 323 320 321 321 343 353 328 334 357 343 351 346
156 155 158 156 151 151 150 152 152 148 150 148 148 149 152 152 154 151 140 136 134 134 130 129 127 127 128 130 133 133 134 131 136 137 134 134 138 146 154 161 158 145 144 154 164 151 128 126 140 142 150 149 134 111 76 65 47 33 25 16 9 5 12 9 9 339 318 332 330 326 319 322 327 323 319 315 331 347 343 337 351 357 347 356 351
159 161 158 160 156 152 150 151 150 146 149 150 151 151 152 153 155 143 141 139 137 132 130 131 131 132 133 136 134 137 138 138 142 140 140 144 149 151 154 169 149 147 143 144 159 142 139 141 134 145 156 156 168 115 61 52 47 25 17 5 1 1 356 10 2 337 338 330 321 323 327 330 328 320 314 307 334 333 340 340 346 355 352 357 353
156 157 160 159 155 153 152 153 156 152 150 153 154 155 156 155 147 142 140 139 135 134 134 135 136 137 141 143 140 144 146 151 154 153 159 164 161 165 160 165 153 153 151 142 137 129 131 132 135 134 128 128 100 76 58 29 26 17 2 354 354 352 349 352 351 327 327 329 330 328 324 328 329 319 319 332 335 332 334 340 341 354 351 351 352
159 158 157 158 161 160 156 158 159 158 152 156 153 153 150 146 145 143 141 138 136 137 137 138 141 145 148 147 147 148 152 154 152 159 162 167 152 125 102 89 107 126 124 127 130 126 116 114 134 133 128 114 100 84 61 11 349 359 348 348 349 342 348 348 348 341 341 335 323 322 310 307 296 298 337 337 336 336 346 346 341 349 352 348 350
155 157 163 160 160 163 159 158 159 159 157 157 155 152 151 148 145 145 141 138 140 143 143 145 147 150 150 152 150 156 155 158 164 161 164 113 84 107 98 97 111 126 123 108 99 97 117 126 119 126 122 113 105 90 61 20 316 325 324 334 332 332 331 338 330 328 324 318 313 312 322 336 343 5 352 350 349 346 348 350 347 349 356 347 347
161 163 168 167 159 160 162 161 161 160 158 155 154 152 153 150 150 146 143 142 143 142 143 147 151 150 154 155 153 160 151 121 96 78 72 116 134 115 109 92 38 100 127 127 115 111 110 125 125 130 126 120 117 126 230 216 227 237 267 300 325 317 317 315 302 314 317 320 334 337 343 341 0 1 1 350 344 351 349 351 350 354 359 352 350
165 163 164 162 163 161 163 164 164 163 159 157 159 155 155 152 150 146 145 145 144 145 148 155 157 154 153 150 156 150 122 123 114 112 101 63 36 78 119 129 116 60 93 125 128 136 149 125 99 118 155 147 170 202 205 197 235 253 256 249 254 267 271 278 297 305 260 273 304 333 314 334 351 5 0 352 344 347 350 352 349 352 357 355 355
164 166 166 164 164 165 165 168 171 166 160 160 157 156 155 154 149 148 148 147 147 148 154 158 154 154 153 151 157 134 133 124 127 122 113 109 101 48 47 60 78 89 93 92 97 115 114 116 130 123 125 145 153 169 191 221 239 259 270 279 287 292 296 296 297 335 0 15 325 328 311 347 348 3 4 347 346 351 351 354 349 350 351 352 351